IU7TPK-1 Weather Reports


time (UTC)temp
F
wind
direction
speed
knots
gust
knots
rain 1hr
in
rain 24hr
in
rain mn
in
humidity
%
barometer
mb
20260505093008 74 122 3.5 4.3 0.00 0.00 0.00 49 1015.0
20260505092006 73 125 3.5 4.3 0.00 0.00 0.00 52 1015.0
20260505090506 72 131 2.6 5.2 0.00 0.00 0.00 53 1015.0
20260505090009 72 122 1.7 5.2 0.00 0.00 0.00 51 1015.0
20260505085506 72 121 2.6 5.2 0.00 0.00 0.00 52 1015.0
20260505085006 72 134 3.5 4.3 0.00 0.00 0.00 52 1015.0
20260505084509 72 120 2.6 4.3 0.00 0.00 0.00 54 1015.0
20260505084006 71 112 0.0 4.3 0.00 0.00 0.00 57 1015.0
20260505083506 71 121 1.7 4.3 0.00 0.00 0.00 57 1016.0
20260505083008 71 133 0.0 3.5 0.00 0.00 0.00 58 1016.0
20260505082506 70 148 2.6 4.3 0.00 0.00 0.00 58 1016.0
20260505082005 70 149 0.0 4.3 0.00 0.00 0.00 57 1015.0
20260505081509 70 143 0.0 3.5 0.00 0.00 0.00 59 1015.0
20260505081006 70 141 0.0 3.5 0.00 0.00 0.00 60 1015.0
20260505080506 70 133 2.6 3.5 0.00 0.00 0.00 60 1016.0
20260505080009 69 141 1.7 3.5 0.00 0.00 0.00 61 1016.0
20260505075006 69 139 2.6 3.5 0.00 0.00 0.00 61 1016.0
20260505074509 69 111 0.0 3.5 0.00 0.00 0.00 61 1016.0
20260505074006 69 132 1.7 3.5 0.00 0.00 0.00 60 1016.0
20260505073506 69 154 2.6 3.5 0.00 0.00 0.00 61 1016.0
20260505073008 69 154 2.6 3.5 0.00 0.00 0.00 60 1016.0
20260505072506 68 155 3.5 3.5 0.00 0.00 0.00 60 1016.0
20260505072006 68 160 2.6 3.5 0.00 0.00 0.00 59 1016.0
20260505071508 68 155 2.6 3.5 0.00 0.00 0.00 60 1016.0
20260505070009 68 154 1.7 3.5 0.00 0.00 0.00 59 1015.0
20260505065506 67 141 1.7 3.5 0.00 0.00 0.00 59 1015.0
20260505065006 67 145 0.0 3.5 0.00 0.00 0.00 60 1016.0
20260505064508 67 158 1.7 3.5 0.00 0.00 0.00 60 1016.0
20260505064006 67 149 0.0 2.6 0.00 0.00 0.00 61 1016.0
20260505063506 67 83 0.0 2.6 0.00 0.00 0.00 61 1016.0
20260505063008 66 112 0.0 2.6 0.00 0.00 0.00 62 1016.0
20260505062506 66 135 0.0 3.5 0.00 0.00 0.00 63 1016.0
20260505061509 66 81 0.0 3.5 0.00 0.00 0.00 63 1016.0
20260505061006 65 70 0.0 3.5 0.00 0.00 0.00 63 1016.0
20260505060506 65 59 0.0 2.6 0.00 0.00 0.00 61 1015.0
20260505060009 64 52 0.0 2.6 0.00 0.00 0.00 61 1015.0
20260505055506 64 54 0.0 2.6 0.00 0.00 0.00 61 1015.0
20260505054509 64 61 0.0 2.6 0.00 0.00 0.00 60 1016.0
20260505054006 63 61 0.0 2.6 0.00 0.00 0.00 60 1016.0
20260505053506 63 59 0.0 2.6 0.00 0.00 0.00 61 1015.0
20260505052506 62 46 0.0 2.6 0.00 0.00 0.00 61 1015.0
20260505052005 61 46 0.0 2.6 0.00 0.00 0.00 62 1015.0
20260505051006 60 46 0.0 2.6 0.00 0.00 0.00 62 1015.0
20260505050506 60 46 0.0 2.6 0.00 0.00 0.00 62 1015.0
20260505041509 55 46 0.0 2.6 0.00 0.00 0.00 64 1015.0
20260505041006 55 46 0.0 2.6 0.00 0.00 0.00 63 1015.0
20260505040506 55 46 0.0 2.6 0.00 0.00 0.00 63 1015.0
20260505040008 55 46 0.0 1.7 0.00 0.00 0.00 63 1015.0
20260505035506 56 46 0.0 1.7 0.00 0.00 0.00 63 1015.0
20260505035006 56 46 0.0 1.7 0.00 0.00 0.00 63 1015.0
20260505034509 56 46 0.0 1.7 0.00 0.00 0.00 63 1015.0
20260505034006 56 46 0.0 2.6 0.00 0.00 0.00 63 1015.0
20260505033506 56 46 0.0 2.6 0.00 0.00 0.00 62 1015.0
20260505033008 56 46 0.0 2.6 0.00 0.00 0.00 62 1015.0
20260505032506 56 46 0.0 2.6 0.00 0.00 0.00 62 1015.0
20260505032006 56 46 0.0 1.7 0.00 0.00 0.00 62 1015.0
20260505031508 56 0 0.0 0.0 0.00 0.00 0.00 62 1015.0
20260505031006 56 0 0.0 0.0 0.00 0.00 0.00 62 1015.0
20260505030506 56 46 0.0 1.7 0.00 0.00 0.00 62 1015.0
20260505030008 56 46 0.0 2.6 0.00 0.00 0.00 61 1015.0
20260505025506 56 46 0.0 2.6 0.00 0.00 0.00 61 1015.0
20260505025006 56 46 0.0 1.7 0.00 0.00 0.00 61 1015.0
20260505024508 56 46 0.0 1.7 0.00 0.00 0.00 61 1015.0
20260505024006 56 46 0.0 2.6 0.00 0.00 0.00 61 1015.0
20260505023506 56 47 0.0 2.6 0.00 0.00 0.00 60 1015.0
20260505022506 57 47 2.6 2.6 0.00 0.00 0.00 60 1015.0
20260505022006 57 47 0.0 2.6 0.00 0.00 0.00 60 1015.0
20260505021508 57 48 0.0 1.7 0.00 0.00 0.00 60 1015.0
20260505021006 57 48 0.0 1.7 0.00 0.00 0.00 59 1015.0
20260505020506 57 48 0.0 1.7 0.00 0.00 0.00 59 1015.0
20260505020008 58 47 0.0 1.7 0.00 0.00 0.00 59 1015.0
20260505015506 58 48 0.0 1.7 0.00 0.00 0.00 59 1015.0
20260505014005 58 48 0.0 2.6 0.00 0.00 0.00 59 1015.0
20260505013506 58 48 0.0 2.6 0.00 0.00 0.00 59 1015.0
20260505013009 58 48 1.7 2.6 0.00 0.00 0.00 59 1015.0
20260505012505 58 47 0.0 2.6 0.00 0.00 0.00 58 1015.0
20260505012006 58 47 1.7 2.6 0.00 0.00 0.00 58 1015.0
20260505010505 58 47 1.7 2.6 0.00 0.00 0.00 58 1015.0
20260505010009 59 47 1.7 2.6 0.00 0.00 0.00 58 1015.0
20260505004509 59 48 0.0 2.6 0.00 0.00 0.00 57 1015.0
20260505003506 59 48 1.7 2.6 0.00 0.00 0.00 57 1015.0
20260505002506 59 49 2.6 3.5 0.00 0.00 0.00 57 1015.0
20260505000008 59 50 1.7 2.6 0.00 0.00 0.00 56 1016.0
20260504235506 59 50 1.7 2.6 0.00 0.00 0.00 56 1016.0
20260504235006 59 49 1.7 2.6 0.00 0.00 0.00 56 1016.0
20260504234508 59 50 0.0 1.7 0.00 0.00 0.00 56 1016.0
20260504234006 59 49 0.0 2.6 0.00 0.00 0.00 56 1016.0
20260504233506 59 49 0.0 2.6 0.00 0.00 0.00 56 1016.0
20260504232506 59 47 1.7 2.6 0.00 0.00 0.00 57 1016.0
20260504232006 59 47 1.7 2.6 0.00 0.00 0.00 57 1016.0
20260504231508 59 46 1.7 3.5 0.00 0.00 0.00 57 1016.0
20260504231006 59 44 1.7 3.5 0.00 0.00 0.00 57 1016.0
20260504230506 59 43 2.6 2.6 0.00 0.00 0.00 56 1016.0
20260504230008 59 45 1.7 2.6 0.00 0.00 0.00 56 1016.0
20260504225506 59 47 2.6 2.6 0.00 0.00 0.00 56 1016.0
20260504225006 59 49 1.7 2.6 0.00 0.00 0.00 56 1016.0
20260504224509 60 52 2.6 2.6 0.00 0.00 0.00 56 1016.0
20260504223506 59 335 1.7 2.6 0.00 0.00 0.00 56 1016.0
20260504223009 60 284 0.0 1.7 0.00 0.00 0.00 56 1016.0
20260504222505 60 284 0.0 1.7 0.00 0.00 0.00 55 1016.0
20260504221508 61 284 0.0 2.6 0.00 0.00 0.00 55 1016.0
20260504221006 60 284 0.0 2.6 0.00 0.00 0.00 55 1016.0
20260504220506 61 284 0.0 1.7 0.00 0.00 0.00 55 1016.0
20260504220009 61 284 0.0 1.7 0.00 0.00 0.00 55 1016.0
20260504215006 61 284 0.0 2.6 0.00 0.00 0.00 54 1016.0
20260504214509 61 285 0.0 2.6 0.00 0.00 0.00 54 1016.0
20260504214005 62 284 0.0 1.7 0.00 0.00 0.00 54 1016.0
20260504213506 62 284 0.0 1.7 0.00 0.00 0.00 54 1016.0
20260504213009 62 284 0.0 1.7 0.00 0.00 0.00 54 1016.0
20260504212505 62 284 0.0 1.7 0.00 0.00 0.00 54 1016.0
20260504212006 62 0 0.0 0.0 0.00 0.00 0.00 54 1016.0
20260504211508 63 0 0.0 0.0 0.00 0.00 0.00 53 1016.0
20260504210506 63 0 0.0 0.0 0.00 0.00 0.00 53 1016.0
20260504210008 64 0 0.0 0.0 0.00 0.00 0.00 53 1016.0
20260504205506 64 0 0.0 0.0 0.00 0.00 0.00 53 1016.0
20260504205006 64 0 0.0 0.0 0.00 0.00 0.00 54 1016.0
20260504204508 64 0 0.0 0.0 0.00 0.00 0.00 54 1016.0
20260504204006 64 284 0.0 2.6 0.00 0.00 0.00 53 1016.0
20260504203009 64 284 0.0 1.7 0.00 0.00 0.00 54 1017.0
20260504202506 64 284 0.0 1.7 0.00 0.00 0.00 54 1017.0
20260504202006 64 0 0.0 0.0 0.00 0.00 0.00 55 1016.0
20260504201006 64 285 0.0 1.7 0.00 0.00 0.00 54 1016.0
20260504194508 65 0 0.0 0.0 0.00 0.00 0.00 53 1016.0
20260504194006 65 0 0.0 0.0 0.00 0.00 0.00 53 1016.0
20260504193507 65 297 0.0 1.7 0.00 0.00 0.00 52 1016.0
20260504193010 65 291 0.0 2.6 0.00 0.00 0.00 52 1016.0
20260504192506 65 286 0.0 2.6 0.00 0.00 0.00 52 1016.0
20260504192007 66 0 0.0 0.0 0.00 0.00 0.00 52 1016.0
20260504191006 66 0 0.0 0.0 0.00 0.00 0.00 51 1016.0
20260504190008 66 191 0.0 1.7 0.00 0.00 0.00 51 1016.0
20260504185506 67 191 0.0 1.7 0.00 0.00 0.00 51 1016.0
20260504185006 67 191 0.0 1.7 0.00 0.00 0.00 50 1016.0
20260504184508 67 203 0.0 1.7 0.00 0.00 0.00 50 1016.0
20260504184006 67 203 0.0 1.7 0.00 0.00 0.00 50 1016.0
20260504183506 67 203 0.0 1.7 0.00 0.00 0.00 50 1016.0
20260504183008 67 192 0.0 2.6 0.00 0.00 0.00 50 1016.0
20260504182506 68 190 1.7 2.6 0.00 0.00 0.00 49 1016.0
20260504182006 68 200 0.0 1.7 0.00 0.00 0.00 47 1016.0
20260504181508 68 200 0.0 1.7 0.00 0.00 0.00 47 1016.0
20260504181006 69 200 0.0 1.7 0.00 0.00 0.00 47 1016.0
20260504180505 69 0 0.0 0.0 0.00 0.00 0.00 47 1016.0
20260504175506 69 0 0.0 0.0 0.00 0.00 0.00 47 1016.0
20260504175006 69 200 0.0 1.7 0.00 0.00 0.00 47 1016.0
20260504174509 69 200 0.0 1.7 0.00 0.00 0.00 47 1016.0
20260504174006 69 200 0.0 1.7 0.00 0.00 0.00 47 1016.0
20260504173505 69 200 0.0 1.7 0.00 0.00 0.00 47 1015.0
20260504173009 70 198 0.0 2.6 0.00 0.00 0.00 47 1015.0
20260504172506 70 188 0.0 2.6 0.00 0.00 0.00 46 1015.0
20260504172006 70 171 0.0 1.7 0.00 0.00 0.00 47 1015.0
20260504171005 70 176 0.0 2.6 0.00 0.00 0.00 44 1015.0
20260504170506 71 181 0.0 2.6 0.00 0.00 0.00 43 1015.0
20260504151005 78 191 2.6 3.5 0.00 0.00 0.00 37 1015.0
20260504141005 79 177 1.7 4.3 0.00 0.00 0.00 37 1015.0
20260504140506 79 181 1.7 5.2 0.00 0.00 0.00 37 1015.0
20260504130505 80 185 0.0 3.5 0.00 0.00 0.00 38 1016.0
20260504100505 74 154 0.0 2.6 0.00 0.00 0.00 42 1016.0